Regional Weather Roundup
Issued by NWS

Home | Current Version | Previous Version | Text Only | Print | Product List | Glossary On
Versions: 1 2 3 4 5 6 7 8 9 10 11 12 13 14 15 16 17 18 19 20 21 22 23 24 25 26 27 28 29 30 31 32 33 34 35 36 37 38 39 40 41 42 43 44 45 46 47 48 49 50
000
ASUS45 KABQ 190510
RWRNM
WEATHER ROUNDUP FOR NEW MEXICO
NATIONAL WEATHER SERVICE ALBUQUERQUE NM
1100 PM MDT SAT APR 18 2015

NOTE: "FAIR" MEANS FEW OR NO CLOUDS BELOW 12,000 FEET AGL WITH NO
       SIGNIFICANT WEATHER OR OBSTRUCTIONS TO VISION.

      THIS PRODUCT IS RELEASED AS TWO VERSIONS.  ONE VERSION NEAR
      THE TOP OF THE HOUR CONTAINING PRELIMINARY DATA FROM ALBUQUERQUE
      AND OTHER STATIONS.  A FINAL VERSION WITH ADDITIONAL DATA IS
      ISSUED ABOUT 10 MINUTES AFTER THE HOUR.

NMZ501-503-504-510>518-190600-
NORTHWEST PLATEAU/NORTHCENTRAL MOUNTAINS

CITY           SKY/WX    TMP DP  RH WIND       PRES   REMARKS
FARMINGTON     CLEAR     45  36  70 W12       30.01R
LOS ALAMOS     PTCLDY    45  25  46 CALM      29.97F
SANTA FE       PTCLDY    42  29  59 W7        29.95F
ANGEL FIRE     CLOUDY    37  30  78 W12       29.97S WCI  29

$$
NMZ402-403-502-505>509-190600-
WESTCENTRAL MOUNTAINS/SOUTHWEST MOUNTAINS

CITY           SKY/WX    TMP DP  RH WIND       PRES   REMARKS
GALLUP         MOCLDY    47  24  40 NE13      30.07R
GRANTS         CLEAR     37  19  47 N8        30.02F WCI  31
SILVER CITY      N/A     52  16  24 NW12      30.03S

$$
NMZ407-409-411-412-190600-
SOUTHERN DESERTS

CITY           SKY/WX    TMP DP  RH WIND       PRES   REMARKS
LORDSBURG      FAIR      54  14  20 NW3       29.99R
DEMING         CLEAR     57  18  21 W7        29.97R
LAS CRUCES     CLEAR     63  17  17 W16G22    29.96R
HOLLOMAN AFB   CLEAR     58  25  27 N8        29.90R
ALAMOGORDO     CLEAR     59  25  27 N8        29.92S
T OR C         CLEAR     54  24  31 W8        29.96R

$$
NMZ519>523-190600-
CENTRAL VALLEYS/CENTRAL HIGHLANDS

CITY           SKY/WX    TMP DP  RH WIND       PRES   REMARKS
ALBUQUERQUE    PTCLDY    52  24  33 N5        29.97S
DOUBLE EAGLE   CLEAR     37  20  49 SW5       29.98F WCI  34
MORIARTY ARPT  FAIR      47  22  37 NW13      29.96S
CLINES CORNERS CLEAR     44  25  47 NW24      29.92F
BELEN          FAIR      42  21  43 NW8       29.96F
SOCORRO        FAIR      52  24  33 N3        29.96R

$$
NMZ524>526-539-540-190600-
SOUTHCENTRAL MOUNTAINS

CITY           SKY/WX    TMP DP  RH WIND       PRES   REMARKS
RUIDOSO        CLEAR     48  23  37 NW14G23   30.00S

$$
NMZ527>531-190600-
NORTHEAST HIGHLANDS/NORTHEAST PLAINS

CITY           SKY/WX    TMP DP  RH WIND       PRES   REMARKS
LAS VEGAS      PTCLDY    38  20  48 SE8       29.92F WCI  32
RATON          PTCLDY    37  28  70 NE3       29.91S
CLAYTON        PTCLDY    42  32  67 NW13      29.85S

$$
NMZ532>537-190600-
EASTCENTRAL PLAINS

CITY           SKY/WX    TMP DP  RH WIND       PRES   REMARKS
TUCUMCARI      PTCLDY    50  28  42 N13       29.83R
CANNON AFB     NOT AVBL
CLOVIS AIRPORT PTCLDY    54  27  35 NW22G28   29.82S

$$
NMZ028-029-538-190600-
SOUTHEAST PLAINS

CITY           SKY/WX    TMP DP  RH WIND       PRES   REMARKS
ROSWELL        CLEAR     57  33  40 NW8       29.87R
ARTESIA        CLEAR     57  34  41 W13       29.86R
CARLSBAD       CLEAR     54  32  43 W8        29.83S
HOBBS          FAIR      52  36  54 CALM      29.85S


$$


USA.gov is the U.S. government's official web portal to all federal, state and local government web resources and services.